Terminal Aerodrome Forecast
Issued by NWS

Home | Current Version | Previous Version | Text Only | Print | Product List | Glossary On
Versions: 1 2 3 4 5 6 7 8 9 10 11 12 13 14 15
000
FTUS45 KRIW 032331
TAFBPI
TAF
KBPI 032331Z 0400/0424 32011KT P6SM SCT100
     FM040200 35010KT P6SM SCT100
     FM040700 VRB05KT P6SM FEW150=

USA.gov is the U.S. government's official web portal to all federal, state and local government web resources and services.